Regional Weather Roundup
Issued by NWS

Home | Current Version | Previous Version | Text Only | Print | Product List | Glossary On
Versions: 1 2 3 4 5 6 7 8 9 10 11 12 13 14 15 16 17 18 19 20 21 22 23 24 25 26 27 28 29 30 31 32 33 34 35 36 37 38 39 40 41 42 43 44 45 46 47 48 49 50
000
ASUS43 KLSX 302210
RWRMO

WEATHER SUMMARY FOR MISSOURI
NATIONAL WEATHER SERVICE SPRINGFIELD MO
500 PM CDT TUE AUG 30 2016

NOTE: "FAIR" INDICATES FEW OR NO CLOUDS BELOW 12,000 FEET WITH NO
       SIGNIFICANT WEATHER AND/OR OBSTRUCTIONS TO VISIBILITY.
       CURRENT SKY AND/OR WEATHER CONDITIONS ARE NOT AVAILABLE FOR
       CHILLICOTHE AND FARMINGTON.

MOZ001>031-035>038-043-044-053-054-302300-
...NORTHERN AND WESTERN MISSOURI...

CITY           SKY/WX    TMP DP  RH WIND       PRES   REMARKS
KANSAS CTY INT MOSUNNY   86  70  58 N6        30.09F HX  90
KANSAS C DTWN  MOSUNNY   85  70  60 N8        30.07F
LEE`S SUMMIT   CLOUDY    86  71  60 NE9       30.09F HX  91
ST JOSEPH      MOSUNNY   83  71  67 N6        30.10S
CHILLICOTHE      N/A     85  73  67 N3        30.10S HX  91
KIRKSVILLE     MOSUNNY   84  70  62 N8        30.10F

$$
MOZ066>068-077>081-088>096-101>105-302300-
...SOUTHWEST MISSOURI...

CITY           SKY/WX    TMP DP  RH WIND       PRES   REMARKS
SPRINGFIELD    SUNNY     91  67  44 NE12      30.06F HX  94
JOPLIN         MOSUNNY   92  70  48 VRB6      30.04F HX  97
BRANSON        MOSUNNY   88  70  55 E7        30.07F HX  92

$$
MOZ032>034-039>042-045>050-055>058-069>072-302300-
...CENTRAL MISSOURI...

CITY           SKY/WX    TMP DP  RH WIND       PRES   REMARKS
COLUMBIA       CLOUDY    77  71  82 SE5       30.09F
JEFFERSON CITY CLOUDY    76  72  87 NE3       30.09S
ROLLA          LGT RAIN  74  71  91 SE5       30.11S
SEDALIA        CLOUDY    80  69  69 SE12      30.10S THUNDER
WHITEMAN AFB   MOSUNNY   88  73  60 E8        30.07S HX  95
OSAGE BEACH    LGT RAIN  78  71  79 CALM      30.10F

$$
MOZ051-052-059>065-302300-
...EAST CENTRAL MISSOURI...

CITY           SKY/WX    TMP DP  RH WIND       PRES   REMARKS
ST LOUIS INTL  TSTM      75  71  87 W6        30.09F
SPIRIT OF STL  TSTM      73  71  93 E8        30.07F FOG
ST CHARLES     LGT RAIN  73  73 100 SW5       30.07F FOG

$$
MOZ072>076-082>087-097>100-106>115-302300-
...SOUTH CENTRAL AND SOUTHEAST MISSOURI...

CITY           SKY/WX    TMP DP  RH WIND       PRES   REMARKS
CAPE GIRARDEAU SUNNY     91  71  51 NE6       30.02F HX  97
FARMINGTON     PTSUNNY   76  70  82 NW20G33   30.12R THUNDER
POPLAR BLUFF   SUNNY     91  73  55 N6        30.01F HX  99
WEST PLAINS    MOSUNNY   91  69  48 VRB7      30.08F HX  96

$$




USA.gov is the U.S. government's official web portal to all federal, state and local government web resources and services.